When you browse on this site, cookies collect data to enhance your experience and personalize the content and advertising you see.
Visit our Privacy Policy to learn more. By continuing to use the site, you agree to this use of cookies and data.
  • In Hungary
  • List of Countries
  • For 7 days
  • Water Temperature
  • Satellite Maps
  • Weather Map
  • News
  • Weather Widgets
  • user-avatar
    Login

    Hourly Weather Dangriga

    Today, 14 December, Friday

    Time Temperature Precipitation Wind Pressure Humidity
    00:00 +25°C° 0 mm 5 mps 759 mmHg 95%
    01:00 +25°C° 0 mm 4 mps 759 mmHg 96%
    02:00 +25°C° 0 mm 4 mps 758 mmHg 97%
    03:00 +25°C° 0 mm 4 mps 758 mmHg 97%
    04:00 +25°C° 0 mm 3 mps 758 mmHg 98%
    05:00 +25°C° 0 mm 3 mps 759 mmHg 98%
    06:00 +25°C° 0 mm 3 mps 759 mmHg 99%
    07:00 +27°C° 0 mm 2 mps 759 mmHg 89%
    08:00 +29°C° 0 mm 2 mps 760 mmHg 79%
    09:00 +31°C° 0 mm 2 mps 760 mmHg 69%
    10:00 +32°C° 0 mm 2 mps 760 mmHg 63%
    11:00 +34°C° 0 mm 2 mps 760 mmHg 56%
    12:00 +36°C° 0 mm 2 mps 760 mmHg 49%
    13:00 +35°C° 0.1 mm 2 mps 759 mmHg 52%
    14:00 +34°C° 0.1 mm 2 mps 759 mmHg 55%
    15:00 +34°C° 0.1 mm 2 mps 759 mmHg 58%
    16:00 +31°C° 0.1 mm 2 mps 759 mmHg 68%
    17:00 +28°C° 0.1 mm 1 mps 759 mmHg 78%
    18:00 +26°C° 0.1 mm 1 mps 759 mmHg 89%
    19:00 +26°C° 0.2 mm 1 mps 760 mmHg 90%
    20:00 +25°C° 0.2 mm 1 mps 761 mmHg 91%
    21:00 +25°C° 0.2 mm 1 mps 762 mmHg 92%
    22:00 +25°C° 0.5 mm 3 mps 762 mmHg 93%
    23:00 +25°C° 0.5 mm 4 mps 762 mmHg 94%

    Tomorrow, 15 December, Saturday

    Time Temperature Precipitation Wind Pressure Humidity
    00:00 +23°C° 0.5 mm 5 mps 763 mmHg 95%
    01:00 +23°C° 0.2 mm 6 mps 763 mmHg 94%
    02:00 +22°C° 0.2 mm 7 mps 763 mmHg 92%
    03:00 +22°C° 0.2 mm 8 mps 763 mmHg 91%
    04:00 +22°C° 0 mm 8 mps 763 mmHg 89%
    05:00 +21°C° 0 mm 8 mps 764 mmHg 87%
    06:00 +21°C° 0 mm 8 mps 764 mmHg 85%
    07:00 +22°C° 0 mm 7 mps 765 mmHg 79%
    08:00 +23°C° 0 mm 7 mps 765 mmHg 72%
    09:00 +24°C° 0 mm 7 mps 766 mmHg 66%
    10:00 +26°C° 0 mm 7 mps 766 mmHg 61%
    11:00 +27°C° 0 mm 6 mps 766 mmHg 56%
    12:00 +28°C° 0 mm 6 mps 766 mmHg 50%
    13:00 +28°C° 0 mm 5 mps 765 mmHg 52%
    14:00 +28°C° 0 mm 4 mps 765 mmHg 54%
    15:00 +27°C° 0 mm 3 mps 764 mmHg 56%
    16:00 +26°C° 0 mm 3 mps 765 mmHg 61%
    17:00 +25°C° 0 mm 3 mps 765 mmHg 66%
    18:00 +24°C° 0 mm 3 mps 765 mmHg 71%
    19:00 +22°C° 0 mm 3 mps 766 mmHg 73%
    20:00 +22°C° 0 mm 3 mps 766 mmHg 76%
    21:00 +21°C° 0 mm 4 mps 767 mmHg 78%
    22:00 +21°C° 0 mm 4 mps 767 mmHg 78%
    23:00 +21°C° 0 mm 5 mps 766 mmHg 77%

    Day after tomorrow, 16 December, Sunday

    Time Temperature Precipitation Wind Pressure Humidity
    00:00 +21°C° 0 mm 5 mps 766 mmHg 77%
    01:00 +21°C° 0 mm 5 mps 766 mmHg 78%
    02:00 +20°C° 0 mm 6 mps 766 mmHg 78%
    03:00 +20°C° 0 mm 6 mps 765 mmHg 79%
    04:00 +20°C° 0 mm 6 mps 766 mmHg 79%
    05:00 +20°C° 0 mm 6 mps 766 mmHg 80%
    06:00 +19°C° 0 mm 6 mps 766 mmHg 80%
    07:00 +20°C° 0 mm 6 mps 767 mmHg 75%
    08:00 +21°C° 0 mm 5 mps 767 mmHg 71%
    09:00 +22°C° 0 mm 5 mps 768 mmHg 66%
    10:00 +25°C° 0 mm 5 mps 767 mmHg 61%
    11:00 +26°C° 0 mm 5 mps 767 mmHg 56%
    12:00 +28°C° 0 mm 4 mps 766 mmHg 51%
    13:00 +28°C° 0 mm 4 mps 766 mmHg 51%
    14:00 +28°C° 0 mm 4 mps 765 mmHg 51%
    15:00 +28°C° 0 mm 3 mps 764 mmHg 51%
    16:00 +27°C° 0 mm 3 mps 764 mmHg 57%
    17:00 +26°C° 0 mm 2 mps 764 mmHg 63%
    18:00 +25°C° 0 mm 2 mps 764 mmHg 69%
    19:00 +24°C° 0 mm 2 mps 765 mmHg 71%
    20:00 +24°C° 0 mm 2 mps 765 mmHg 73%
    21:00 +23°C° 0 mm 2 mps 766 mmHg 75%
    22:00 +23°C° 0 mm 2 mps 765 mmHg 76%
    23:00 +22°C° 0 mm 3 mps 765 mmHg 77%

    17 December, Monday

    Time Temperature Precipitation Wind Pressure Humidity
    00:00 +22°C° 0 mm 3 mps 765 mmHg 77%
    01:00 +21°C° 0 mm 4 mps 765 mmHg 78%
    02:00 +21°C° 0 mm 4 mps 764 mmHg 78%
    03:00 +20°C° 0 mm 5 mps 764 mmHg 79%
    04:00 +20°C° 0 mm 5 mps 764 mmHg 79%
    05:00 +20°C° 0 mm 5 mps 764 mmHg 79%
    06:00 +20°C° 0 mm 5 mps 765 mmHg 79%
    07:00 +21°C° 0 mm 5 mps 765 mmHg 76%
    08:00 +22°C° 0 mm 5 mps 766 mmHg 73%
    09:00 +22°C° 0 mm 5 mps 766 mmHg 70%
    10:00 +25°C° 0 mm 4 mps 766 mmHg 63%
    11:00 +27°C° 0 mm 4 mps 765 mmHg 57%
    12:00 +29°C° 0 mm 4 mps 765 mmHg 50%
    13:00 +28°C° 0 mm 4 mps 764 mmHg 54%
    14:00 +27°C° 0 mm 3 mps 763 mmHg 58%
    15:00 +27°C° 0 mm 3 mps 763 mmHg 62%
    16:00 +26°C° 0 mm 3 mps 763 mmHg 66%
    17:00 +25°C° 0 mm 3 mps 763 mmHg 70%
    18:00 +24°C° 0 mm 3 mps 763 mmHg 75%
    19:00 +24°C° 0.2 mm 3 mps 764 mmHg 78%
    20:00 +22°C° 0.2 mm 3 mps 764 mmHg 82%
    21:00 +22°C° 0.2 mm 3 mps 765 mmHg 85%
    22:00 +22°C° 0.1 mm 3 mps 764 mmHg 86%
    23:00 +21°C° 0.1 mm 3 mps 764 mmHg 87%

    18 December, Tuesday

    Time Temperature Precipitation Wind Pressure Humidity
    00:00 +21°C° 0.1 mm 3 mps 764 mmHg 89%
    01:00 +21°C° 0 mm 3 mps 763 mmHg 87%
    02:00 +21°C° 0 mm 3 mps 763 mmHg 86%
    03:00 +20°C° 0 mm 3 mps 762 mmHg 85%
    04:00 +20°C° 0 mm 4 mps 763 mmHg 84%
    05:00 +20°C° 0 mm 4 mps 763 mmHg 82%
    06:00 +21°C° 0 mm 4 mps 763 mmHg 81%
    07:00 +22°C° 0 mm 4 mps 763 mmHg 75%
    08:00 +25°C° 0 mm 3 mps 764 mmHg 68%
    09:00 +26°C° 0 mm 3 mps 764 mmHg 62%
    10:00 +28°C° 0 mm 3 mps 764 mmHg 58%
    11:00 +29°C° 0 mm 3 mps 763 mmHg 54%
    12:00 +31°C° 0 mm 3 mps 762 mmHg 50%
    13:00 +30°C° 0 mm 3 mps 762 mmHg 53%
    14:00 +30°C° 0 mm 3 mps 761 mmHg 55%
    15:00 +29°C° 0 mm 3 mps 760 mmHg 58%
    16:00 +28°C° 0 mm 3 mps 761 mmHg 65%
    17:00 +26°C° 0 mm 3 mps 761 mmHg 71%
    18:00 +25°C° 0 mm 3 mps 761 mmHg 78%
    19:00 +24°C° 0.1 mm 3 mps 762 mmHg 79%
    20:00 +24°C° 0.1 mm 3 mps 762 mmHg 81%
    21:00 +24°C° 0.1 mm 3 mps 762 mmHg 83%
    22:00 +22°C° 0.4 mm 3 mps 762 mmHg 84%
    23:00 +22°C° 0.4 mm 3 mps 762 mmHg 85%

    19 December, Wednesday

    Time Temperature Precipitation Wind Pressure Humidity
    00:00 +22°C° 0.4 mm 3 mps 761 mmHg 86%
    01:00 +22°C° 0.3 mm 3 mps 761 mmHg 87%
    02:00 +21°C° 0.3 mm 3 mps 761 mmHg 87%
    03:00 +21°C° 0.3 mm 3 mps 760 mmHg 88%
    04:00 +21°C° 0 mm 3 mps 761 mmHg 88%
    05:00 +21°C° 0 mm 3 mps 761 mmHg 89%
    06:00 +21°C° 0 mm 3 mps 761 mmHg 89%
    07:00 +24°C° 0 mm 3 mps 761 mmHg 82%
    08:00 +26°C° 0 mm 2 mps 762 mmHg 74%
    09:00 +29°C° 0 mm 2 mps 762 mmHg 67%
    10:00 +29°C° 0 mm 2 mps 761 mmHg 64%
    11:00 +30°C° 0 mm 2 mps 761 mmHg 62%
    12:00 +31°C° 0 mm 2 mps 760 mmHg 59%
    13:00 +31°C° 0 mm 2 mps 759 mmHg 60%
    14:00 +31°C° 0 mm 2 mps 759 mmHg 61%
    15:00 +31°C° 0 mm 2 mps 758 mmHg 61%
    16:00 +29°C° 0 mm 2 mps 759 mmHg 70%
    17:00 +28°C° 0 mm 2 mps 759 mmHg 79%
    18:00 +26°C° 0 mm 3 mps 759 mmHg 88%
    19:00 +25°C° 0 mm 3 mps 760 mmHg 90%
    20:00 +25°C° 0 mm 3 mps 760 mmHg 92%
    21:00 +24°C° 0 mm 3 mps 760 mmHg 95%
    22:00 +24°C° 0 mm 3 mps 760 mmHg 95%
    23:00 +24°C° 0 mm 2 mps 760 mmHg 96%
    Show more